Location: Lapleau
(45.4912°N, 2.1259°E)
Time: 09:39:47
(UTC+00:00)

Daily predictions for brighter satellites

Satellite Brightness Start Highest point End
(mag) Time Altitude Azimuth Time Altitude Azimuth Time Altitude Azimuth
Cosmos 1697 Rocket 4.2 19:45:56 10° NW 19:51:05 37° WSW 19:56:12 10° S
Cosmos 2058 3.8 19:48:29 10° SSW 19:52:36 55° WNW 19:56:45 10° N
Cosmos 1933 4.3 19:49:04 10° NNE 19:52:40 30° ENE 19:56:14 10° SE
Cosmos 1271 Rocket 4.0 19:50:27 10° NNE 19:53:52 26° ENE 19:57:17 10° SE
Gbstr 26 Del rocket 2.9 19:50:10 10° WNW 19:53:53 66° NNE 19:57:45 10° ESE
MOS 1 4.3 19:48:56 10° SSE 19:54:34 76° ENE 20:00:14 10° NNW
Cosmos 1538 Rocket 4.0 19:49:55 10° SSW 19:55:06 72° ESE 20:00:16 10° NNE
IRS-1A Rocket 4.3 19:50:33 10° SSE 19:56:02 75° ENE 20:01:33 10° NNW
OBJECT-B 2.1 19:53:47 10° S 19:56:50 40° W 19:59:54 10° NNW
USA 186 3.7 19:57:56 10° SSW 20:00:28 26° W 20:02:51 10° NW
Cosmos 2098 Rocket 2.4 19:57:31 10° S 20:00:42 70° E 20:04:36 10° NNE
IGS 5A 3.8 19:57:04 10° SE 20:01:02 48° ENE 20:05:02 10° N
ARIANE 5 R/B 4.5 19:59:44 10° E 20:02:33 17° ENE 20:05:19 10° NNE
Ariane Rocket 3.0 20:01:35 10° SSE 20:06:40 85° ENE 20:11:46 10° NNW
Cosmos 1842 Rocket 4.5 20:03:32 10° NNW 20:07:54 51° W 20:12:14 10° S
Landsat 7 4.1 20:03:35 10° SSE 20:08:12 53° ENE 20:12:50 10° N
Cosmos 1782 4.0 20:05:10 10° NNE 20:08:36 27° ENE 20:11:44 11° SE
Cosmos 2082 Rocket 3.2 20:06:19 10° SW 20:11:47 52° WNW 20:17:21 10° NNE
Cosmos 304 Rocket 3.8 20:08:08 10° NNW 20:12:57 71° ENE 20:17:42 10° SSE
Cosmos 2278 4.4 20:13:03 10° NW 20:18:33 52° WSW 20:24:01 10° S
Cosmos 2360 Rocket 3.3 20:14:25 10° N 20:19:23 31° NE 20:23:55 12° ESE
ATLAS 3B R/B 3.3 20:12:24 10° NW 20:19:24 60° WSW 20:26:39 10° SSE
Cosmos 1606 4.0 20:16:23 10° NNW 20:19:58 41° W 20:23:33 10° SSW
Resurs 1-3 4.1 20:16:12 10° S 20:20:32 61° W 20:24:54 10° NNW
ATLAS 2AS CENTAUR R/B 4.3 20:13:06 10° WSW 20:20:39 46° NW 20:27:58 10° NNE
MetOp-B 4.3 20:18:48 10° SSE 20:24:02 59° ENE 20:29:19 10° N
Cosmos 1092 Rocket 4.1 20:19:40 10° S 20:25:50 65° E 20:32:06 10° NNE
Cosmos 2221 4.5 20:23:38 10° NNW 20:27:23 29° W 20:31:08 10° SSW
ISS -2.2 20:26:58 10° W 20:29:52 26° SW 20:32:13 13° SSE
NOSS 2-1 (C) 3.7 20:27:36 10° S 20:30:34 29° ESE 20:33:27 10° ENE
Cosmos 2151 3.0 20:26:28 10° S 20:30:43 85° W 20:35:01 10° N
Cosmos 2026 Rocket 4.1 20:28:38 10° S 20:34:51 61° E 20:41:00 10° NNE
ERS-2 2.5 20:31:16 10° N 20:34:53 68° WNW 20:38:29 10° SSW
Cosmos 2084 3.5 20:32:07 10° SSW 20:36:01 48° ESE 20:40:00 10° NE
COSMOS 2455 4.2 20:34:50 16° SE 20:36:45 18° ESE 20:40:37 10° ENE
Cosmos 158 Rocket 4.4 20:32:19 10° SSW 20:37:28 69° WNW 20:42:46 10° NNE
NOSS 2-1 (D) 3.4 20:35:11 10° S 20:38:18 35° ESE 20:41:20 10° NE
Cosmos 1812 3.9 20:35:19 10° NNE 20:38:42 28° ENE 20:40:31 19° ESE
Cosmos 2333 Rocket 3.7 20:35:48 10° N 20:40:20 24° NE 20:44:24 12° E
Cosmos 1980 Rocket 3.9 20:35:59 10° NW 20:40:42 28° WSW 20:45:26 10° SSW
GP-B 3.3 20:36:22 10° NNE 20:40:43 50° E 20:44:01 16° SSE
Cosmos 923 Rocket 4.0 20:35:54 10° SSW 20:41:14 80° ESE 20:46:36 10° NNE
BREEZE-M DEB (TANK) 3.8 20:38:39 10° WNW 20:42:01 69° SSW 20:49:45 16° SE
SPOT 1/Viking Rocket 3.6 20:38:26 14° SSE 20:42:58 76° ENE 20:48:13 10° N
ERS-1 Rocket 3.8 20:40:25 17° ESE 20:43:37 36° ENE 20:48:10 10° N
USA 245 3.7 20:42:07 17° SSE 20:45:44 62° ENE 20:49:36 10° N
SL-27 R/B 3.5 20:44:42 23° SE 20:45:50 28° ESE 20:48:56 10° NE
Okean 3 Rocket 3.8 20:48:05 16° SSE 20:51:32 54° E 20:55:57 10° NNE
USA 276 3.0 20:49:05 10° WNW 20:52:02 36° SW 20:53:10 26° S
Cosmos 2056 Rocket 3.8 20:47:46 10° NNW 20:53:02 54° ENE 20:56:16 22° SE
Cosmos 2322 Rocket 2.2 20:48:21 10° NNW 20:54:01 84° ENE 20:57:55 21° SSE
Meteor 1-26 Rocket 4.5 20:53:07 10° NNW 20:59:01 74° W 21:04:07 13° S
CARTOSAT-1 3.5 20:59:31 24° SSE 21:02:02 71° ENE 21:06:21 10° N
Cosmos 1428 Rocket 4.5 20:56:17 10° S 21:02:26 83° W 21:08:35 10° N
Spot 2 Rocket 3.5 21:03:04 22° SSE 21:06:25 80° ENE 21:11:33 10° NNW
Cosmos 2219 Rocket 3.3 21:06:24 10° N 21:11:22 31° NE 21:14:26 19° E
Resurs 01 Rocket 3.2 21:09:26 10° SSW 21:13:22 31° W 21:17:20 10° NNW
BREEZE M DEB (TANK) 3.8 21:10:51 10° SW 21:14:27 58° SSE 21:34:13 10° ENE
Cosmos 1371 Rocket 4.0 21:09:29 10° NNW 21:14:55 90° E 21:17:55 27° SSE
Cosmos 1680 Rocket 3.8 21:09:58 10° SSW 21:15:14 71° WNW 21:20:30 10° NNE
Cosmos 2112 Rocket 4.1 21:10:25 10° SSW 21:15:43 81° WNW 21:21:01 10° NNE
Cosmos 1515 Rocket 3.8 21:14:46 10° N 21:19:07 52° ENE 21:20:37 35° SE
Cosmos 1151 Rocket 3.3 21:14:53 10° NNW 21:19:13 66° W 21:21:47 24° S
Terra 2.1 21:19:00 31° SE 21:20:59 54° ENE 21:25:39 10° N
Cosmos 1553 Rocket 3.9 21:16:28 10° N 21:22:36 86° E 21:26:23 25° S
Cosmos 2266 Rocket 4.4 21:19:58 27° SE 21:22:48 45° E 21:28:40 10° NNE
SL-16 R/B 3.0 21:19:13 10° NW 21:24:35 44° WSW 21:28:20 19° S
CZ-2C R/B 4.4 21:23:34 10° N 21:27:58 53° WNW 21:32:17 10° SSW
ATLAS 5 CENTAUR R/B 3.4 21:24:11 10° NNW 21:29:05 34° NE 21:33:06 17° E
Cosmos 2333 4.4 21:25:17 10° NNW 21:30:49 58° ENE 21:33:17 32° SE
Cosmos 1766 Rocket 4.2 21:27:54 13° SSW 21:31:40 54° WNW 21:35:58 10° N
Cosmos 1328 Rocket 3.9 21:28:38 10° NNW 21:33:02 62° W 21:35:09 29° SSW
Cosmos 2228 Rocket 4.1 21:30:31 10° N 21:34:29 31° ENE 21:35:17 29° E
Cosmos 2237 4.5 21:29:13 10° NNW 21:34:52 63° WSW 21:37:45 29° S
NOSS 2-1 (E) 3.4 21:33:13 10° SW 21:36:27 57° NW 21:39:50 10° NNE
SPOT 5 2.7 21:36:48 37° S 21:38:27 74° WSW 21:42:53 10° NNW
ARIANE 5 R/B 3.0 21:36:31 30° S 21:38:33 60° W 21:42:57 10° NNW
COSMOS 2428 3.5 21:33:41 10° NNW 21:39:04 41° NE 21:41:31 27° ESE
Gbstr 26 Del rocket 4.2 21:37:18 10° W 21:40:24 24° SW 21:40:43 24° SW
Cosmos 1862 3.5 21:39:48 31° SSW 21:41:33 67° W 21:45:31 10° N
NOSS 3-1 (C) 4.1 21:37:07 10° NW 21:44:38 80° NE 21:49:23 30° SE
Cosmos 292 Rocket 3.7 21:40:54 10° NNW 21:45:43 86° WSW 21:47:10 45° SSE
Cosmos 1048 Rocket 4.4 21:48:39 38° ESE 21:49:02 39° ESE 21:53:46 10° NE
Meteor 2-6 Rocket 4.4 21:44:03 10° NNW 21:49:22 60° W 21:52:01 29° SSW
S3M 4.1 21:48:19 10° N 21:54:44 81° W 21:57:51 33° S
Cosmos 1655 Rocket 4.0 21:54:13 29° S 21:57:44 90° SW 22:04:12 10° N
COSMOS 2487 3.2 22:00:10 41° NE 22:00:10 41° NE 22:02:34 10° NNE
USA 229 DEB 4.1 21:53:15 10° NW 22:00:32 67° NE 22:04:27 31° ESE
Cosmos 972 Rocket 3.9 21:59:17 47° SSE 22:00:36 64° ESE 22:05:34 10° NNE
USA 229 4.1 21:53:21 10° NW 22:00:37 66° NE 22:04:33 31° ESE
Cosmos 1805 Rocket 3.9 22:02:11 48° E 22:02:16 48° E 22:06:32 10° NNE
Cosmos 1420 Rocket 4.3 21:57:28 10° NNW 22:02:43 59° WSW 22:04:27 39° SSW
Cosmos 2360 Rocket 2.8 21:58:12 10° NW 22:03:35 47° WSW 22:05:41 32° SSW
Cosmos 1174 4.5 22:04:22 10° NW 22:06:29 34° W 22:06:29 34° W
Cosmos 1500 Rocket 3.6 22:11:54 53° SSW 22:12:49 73° W 22:17:17 10° N
USA 267 3.5 22:07:30 10° ENE 22:13:44 45° SE 22:14:48 42° SSE
NOSS 0 Rocket 4.5 22:10:35 10° NNW 22:16:37 49° NE 22:18:53 34° ESE
NOSS 3-1 (A) 4.1 22:13:35 10° NW 22:21:07 83° NE 22:25:00 37° SE
COSMOS 2455 2.8 22:17:53 22° SW 22:21:56 82° NW 22:27:59 10° NNE
ERS-1 Rocket 4.3 22:20:25 23° SW 22:22:26 31° W 22:26:53 10° NNW
Lacrosse 5 3.5 22:25:49 21° E 22:25:49 21° E 22:27:46 10° ENE
Meteor 1-20 Rocket 4.2 22:23:03 54° SE 22:24:03 64° E 22:29:42 10° NNE
Meteor 1-27 Rocket 3.9 22:18:25 10° NNW 22:24:03 68° W 22:25:47 45° SSW
Cosmos 2333 Rocket 2.3 22:19:29 10° NNW 22:25:06 66° WSW 22:26:23 50° SSW
Cosmos 1452 Rocket 3.5 22:20:03 10° NNW 22:25:18 74° WSW 22:26:16 58° S
H-2A R/B 3.8 22:22:16 10° N 22:26:26 63° WNW 22:27:05 54° WSW
COBE Rocket 3.8 22:26:51 60° E 22:27:13 62° ENE 22:31:53 10° N
BREEZE-M R/B 4.0 22:26:10 10° WSW 22:31:57 26° ENE 22:33:59 10° ENE
Cosmos 2297 Rocket 3.4 22:32:07 26° E 22:32:07 26° E 22:36:06 10° NE
Cosmos 2322 3.9 22:26:34 10° NNW 22:32:13 61° WSW 22:33:25 50° SSW
Cosmos 1743 Rocket 4.4 22:32:53 37° WSW 22:34:00 45° WNW 22:38:16 10° N
Sich 1 2.9 22:34:10 80° ENE 22:34:10 80° ENE 22:38:22 10° N
Cosmos 2322 Rocket 4.3 22:34:14 10° WNW 22:37:16 15° W 22:39:44 11° SW
Cosmos 2237 Rocket 3.0 22:32:29 10° NNW 22:37:55 43° ENE 22:39:29 35° E
Cosmos 1633 Rocket 3.7 22:44:04 43° ENE 22:44:04 43° ENE 22:47:35 10° NNE
BREEZE-M DEB (TANK) 3.4 22:39:40 10° WNW 22:42:20 32° WNW 22:42:20 32° WNW
Cosmos 2227 Rocket 3.5 22:44:30 25° E 22:44:30 25° E 22:48:15 10° NE
Cosmos 1110 Rocket 3.8 22:42:15 10° NNW 22:47:37 89° WSW 22:48:10 73° SSE
USA 234 3.8 22:42:59 18° E 22:47:49 54° NNE 22:54:09 10° NW
APEX 4.2 22:48:05 62° SSE 22:48:58 72° ESE 22:55:35 10° NNE
Cosmos 1331 Rocket 3.8 22:44:50 10° NNW 22:50:05 87° ENE 22:50:32 76° SSE
Cosmos 1666 Rocket 3.7 22:50:45 64° NE 22:50:45 64° NE 22:54:45 10° NNE
Cosmos 2219 Rocket 2.7 22:50:10 10° NW 22:55:28 45° WSW 22:56:08 43° SW
Gblst 52 Del rocket 4.5 22:50:49 10° WNW 22:57:05 77° SSW 22:58:44 54° SE
Terra 3.8 22:57:53 17° WSW 22:59:04 19° W 23:02:23 10° NW
Spot 4 3.8 23:03:05 77° WSW 23:03:08 77° WSW 23:08:00 10° NNW
SL-16 R/B 3.7 23:02:22 10° N 23:07:16 29° NE 23:09:38 22° E
Meteor 1-25 Rocket 4.5 23:06:07 49° SW 23:07:20 62° WNW 23:12:51 10° N
Meteor 1-18 Rocket 4.1 23:04:11 10° NNW 23:10:03 88° W 23:10:44 71° S
SL-08 R/B 4.3 23:11:22 64° S 23:12:24 84° E 23:18:35 10° N
ATLAS 5 CENTAUR R/B 2.4 23:08:27 10° NW 23:14:03 60° WSW 23:14:35 58° SSW
Cosmos 1862 Rocket 3.8 23:10:20 10° N 23:14:06 66° N 23:14:06 66° N
Okean 1 4.2 23:11:57 10° NNW 23:15:05 46° NW 23:15:05 46° NW
SL-08 ROCKET BODY 4.4 23:19:00 60° SSW 23:20:09 77° W 23:26:21 10° N
COSMOS 2428 3.6 23:18:10 10° NW 23:23:15 34° WSW 23:23:31 34° WSW
NOSS 2-2 (C) 4.5 23:18:08 10° NW 23:23:27 75° NE 23:25:11 51° ESE
Cosmos 1707 Rocket 4.5 23:19:23 10° NNW 23:23:04 41° WNW 23:23:04 41° WNW
Meteor 2-4 Rocket 3.6 23:18:22 10° N 23:24:20 84° ENE 23:24:59 72° SSE
Cosmos 1666 3.9 23:26:25 40° NNE 23:26:25 40° NNE 23:29:00 10° NNE
Meteor 1-19 Rocket 4.5 23:22:47 10° NNW 23:28:10 52° W 23:28:36 50° WSW
Cosmos 1703 Rocket 4.4 23:25:57 10° N 23:29:38 41° ENE 23:29:38 41° ENE
Cosmos 1709 Rocket 4.4 23:30:39 47° ESE 23:31:29 50° E 23:37:35 10° NNE
ALOS 2 3.2 23:36:46 52° WNW 23:36:46 52° WNW 23:40:26 10° NNW
Meteor 1-5 Rocket 4.1 23:35:45 76° SSE 23:36:13 83° E 23:42:09 10° NNE
Cosmos 909 Rocket 4.2 23:36:15 57° SE 23:36:59 61° ESE 23:44:26 10° NE
Cosmos 1745 Rocket 3.9 23:39:17 67° SSW 23:40:13 87° W 23:46:34 10° N
Cosmos 2219 3.1 23:42:23 78° SSE 23:42:38 80° ESE 23:48:26 10° NNE
Cosmos 1302 Rocket 4.2 23:40:40 10° NNW 23:45:34 61° W 23:45:34 61° W
Cosmos 1269 Rocket 4.0 23:47:42 69° W 23:47:59 71° WNW 23:53:17 10° NNE
Timation 1 Rocket 4.2 23:51:21 69° SE 23:51:36 70° ESE 23:57:35 10° NNE
Meteor 1-13 Rocket 4.2 23:46:09 10° N 23:51:55 69° ENE 23:52:26 65° ESE
Meteor 1-14 Rocket 4.5 23:51:46 54° WSW 23:52:27 58° WNW 23:58:02 10° N
